Location: Middelsbur
(53.6609°N, 7.5020°E)
Time: 00:32:49
(UTC+00:00)

Cosmos 1656 Rocket - Pass Details

Date: 06 July 2020
Orbit: 797 x 845 km, 71.1° (Epoch: 03 August)

Event Time Altitude Azimuth Distance (km) Brightness Sun altitude
Rises 23:31:03 0° 328° (NNW) 3,316 7.9 -13.8°
Reaches altitude 10° 23:33:30 10° 331° (NNW) 2,381 7.1 -13.8°
Maximum altitude 23:38:54 65° 54° (NE) 877 3.9 -13.8°
Drops below altitude 10° 23:44:17 10° 137° (SE) 2,374 5.6 -13.8°
Enters shadow 23:44:32 - 137° (SE) 2,466 5.7 -13.8°
